TimeCST,TemperatureF,Dew PointF,Humidity,Sea Level PressureIn,VisibilityMPH,Wind Direction,Wind SpeedMPH,Gust SpeedMPH,PrecipitationIn,Events,Conditions,WindDirDegrees,DateUTC
12:53 AM,41.0,26.1,55,29.83,10.0,SSE,15.0,21.9,N/A,,Overcast,160,2012-12-06 06:53:00
1:53 AM,42.1,28.0,58,29.81,10.0,SSE,9.2,-,N/A,,Overcast,160,2012-12-06 07:53:00
2:53 AM,44.1,28.9,55,29.81,10.0,South,11.5,-,N/A,,Overcast,180,2012-12-06 08:53:00
3:53 AM,44.1,30.0,58,29.79,10.0,South,10.4,-,N/A,,Overcast,180,2012-12-06 09:53:00
4:53 AM,41.0,34.0,76,29.79,10.0,South,6.9,-,0.01,Rain,Light Rain,170,2012-12-06 10:53:00
5:53 AM,39.9,34.0,79,29.79,10.0,SSW,6.9,-,0.01,,Mostly Cloudy,200,2012-12-06 11:53:00
6:53 AM,37.0,32.0,82,29.78,10.0,South,6.9,-,N/A,,Clear,190,2012-12-06 12:53:00
7:53 AM,37.9,30.0,73,29.82,10.0,WNW,16.1,-,N/A,,Clear,290,2012-12-06 13:53:00
8:53 AM,37.0,28.9,73,29.84,10.0,WNW,11.5,-,N/A,,Clear,290,2012-12-06 14:53:00
9:48 AM,37.4,30.2,75,29.81,10.0,WNW,15.0,-,N/A,,Overcast,290,2012-12-06 15:48:00
9:53 AM,37.9,30.0,73,29.86,10.0,WNW,15.0,20.7,N/A,,Overcast,300,2012-12-06 15:53:00
10:53 AM,37.0,28.0,70,29.89,10.0,NW,17.3,25.3,N/A,,Overcast,310,2012-12-06 16:53:00
11:53 AM,39.0,27.0,62,29.88,10.0,WNW,9.2,-,N/A,,Partly Cloudy,290,2012-12-06 17:53:00
12:53 PM,39.9,27.0,60,29.89,10.0,WNW,15.0,20.7,N/A,,Clear,300,2012-12-06 18:53:00
1:53 PM,39.9,26.1,58,29.90,10.0,WNW,15.0,21.9,N/A,,Clear,290,2012-12-06 19:53:00
2:53 PM,39.0,25.0,57,29.91,10.0,WNW,15.0,-,N/A,,Clear,290,2012-12-06 20:53:00
3:53 PM,36.0,24.1,62,29.94,10.0,WNW,11.5,-,N/A,,Clear,290,2012-12-06 21:53:00
4:53 PM,34.0,24.1,67,29.95,10.0,NW,9.2,-,N/A,,Clear,320,2012-12-06 22:53:00
5:53 PM,30.0,23.0,75,29.98,10.0,NW,8.1,-,N/A,,Clear,320,2012-12-06 23:53:00
6:53 PM,30.0,21.0,69,30.01,10.0,NW,13.8,-,N/A,,Clear,310,2012-12-07 00:53:00
7:53 PM,27.0,19.0,72,30.03,10.0,NW,10.4,-,N/A,,Clear,320,2012-12-07 01:53:00
8:53 PM,24.1,18.0,77,30.04,10.0,NW,5.8,-,N/A,,Clear,320,2012-12-07 02:53:00
9:53 PM,23.0,17.1,78,30.04,10.0,NW,4.6,-,N/A,,Clear,310,2012-12-07 03:53:00
10:53 PM,21.9,17.1,82,30.04,10.0,NW,5.8,-,N/A,,Clear,320,2012-12-07 04:53:00
11:53 PM,21.9,17.1,82,30.05,10.0,WNW,4.6,-,N/A,,Clear,300,2012-12-07 05:53:00